Regional Weather Roundup
Issued by NWS

Home | Current Version | Previous Version | Graphics & Text | Print | Product List | Glossary On
Versions: 1 2 3 4 5 6 7 8 9 10 11 12 13 14 15 16 17 18 19 20 21 22 23 24 25 26 27 28 29 30 31 32 33 34 35 36 37 38 39 40 41 42 43 44 45 46 47 48 49 50
000
ASUS43 KLOT 021710
RWRIL

ILLINOIS REGIONAL WEATHER ROUNDUP
NATIONAL WEATHER SERVICE CHICAGO/ROMEOVILLE IL
1100 AM CST MON MAR 02 2015

NOTE: "FAIR" INDICATES FEW OR NO CLOUDS BELOW 12,000 FEET WITH NO
SIGNIFICANT WEATHER AND/OR OBSTRUCTIONS TO VISIBILITY.

* THESE STATIONS ARE NOT UNDER NWS QUALITY CONTROL. THEY ALSO MAY NOT
  REPORT WEATHER SUCH AS PRECIPITATION OR FOG.

ILZ001-002-007-009-015-016-024-021800-
NORTHWEST ILLINOIS

CITY           SKY/WX    TMP DP  RH WIND       PRES   REMARKS
MOLINE         MOSUNNY   26  14  60 CALM      30.53S
STERLING*      SUNNY     19  10  68 SE3       30.54S
SAVANNA*       SUNNY     23  13  63 CALM      30.53F
$$

ILZ003-004-008-010-011-017-018-021800-
NORTH CENTRAL ILLINOIS

CITY           SKY/WX    TMP DP  RH WIND       PRES   REMARKS
ROCKFORD       MOSUNNY   25  12  58 CALM      30.53R
FREEPORT*      SUNNY     20  11  69 CALM      30.53S
ROCHELLE*      SUNNY     15  11  85 CALM      30.53S
DE KALB*       SUNNY     19  11  70 N5        30.52S WCI  13
PERU*          SUNNY     23  14  68 N3        30.55R
$$

ILZ005-006-012>014-019>023-021800-
NORTHEAST ILLINOIS

CITY           SKY/WX    TMP DP  RH WIND       PRES   REMARKS
CHICAGO-OHARE  MOSUNNY   27  10  49 CALM      30.52R
CHICAGO-MIDWAY MOSUNNY   28  12  51 N3        30.53R
AURORA         FAIR      21  12  68 NW7       30.53S WCI  12
LANSING*       SUNNY     26  14  59 S3        30.53R
JOLIET*        FAIR      25  12  59 CALM      30.53F
WAUKEGAN       SUNNY     25  10  53 CALM      30.51R
DUPAGE AIRPORT SUNNY     27  12  53 N5        30.51R WCI  22
KANKAKEE*      SUNNY     22  14  71 SW3       30.55R
WHEELING       SUNNY     26  10  50 NW3       30.53R
MORRIS*        SUNNY     20  14  76 CALM      30.54S
ROMEOVILLE*    SUNNY     25  13  60 CALM      30.52F
NORTHERLY ISL    N/A     26  13  57 NE5         N/A  WCI  21
$$

LMZ740>746-021800-
SOUTHERN LAKE MICHIGAN

STATION/POSITION SKY/WX   TEMP    WIND        PRES    VSBY  WAVE
                          AIR SEA DIR/SP/G                  HT/PER
                          (F)     (DEG/KT/KT) (MB)    (MI)  (FT/S)
WAUKEGAN HARBOR            22     330/  7/ 10   N/A
HARRISON CRIB              23     360/  5/  6   N/A
BURNHAM HARBOR             27      40/  4/  6   N/A
CALUMET HARBOR             26      10/  5/  8 1032.2S
MICHIGAN CITY              28     300/  5/  6   N/A
$$

ILZ025>027-034>036-040-047-049-050-058-095>099-021800-
WEST-CENTRAL ILLINOIS

CITY           SKY/WX    TMP DP  RH WIND       PRES   REMARKS
QUINCY         PTSUNNY   28  16  60 NE6       30.51F WCI  22
GALESBURG*     MOSUNNY   22  15  74 CALM      30.53S
MACOMB*        MOSUNNY   22  16  78 CALM      30.55F
JACKSONVILLE*  MOSUNNY   29  19  66 E5        30.53F WCI  24
PITTSFIELD*    PTSUNNY   30  19  63 NE6       30.52F WCI  24
$$

ILZ028>032-037-038-041>044-048-051>054-059>061-021800-
CENTRAL ILLINOIS

CITY           SKY/WX    TMP DP  RH WIND       PRES   REMARKS
PONTIAC        SUNNY     21  14  74 CALM      30.55S
BLOOMINGTON    SUNNY     27  17  65 NE7       30.53S WCI  20
DECATUR        MOSUNNY   28  18  66 E3        30.54F
PEORIA         MOSUNNY   28  16  60 SW3       30.54S
LACON*         SUNNY     25  13  59 CALM      30.53F
LINCOLN*       MOSUNNY   26  18  73 CALM      30.56S
SPRINGFIELD    MOSUNNY   33  20  58 CALM      30.54F
TAYLORVILLE    MOSUNNY   27  18  69 N5        30.55S WCI  21
$$

ILZ033-039-045-046-055>057-062-063-021800-
EAST-CENTRAL ILLINOIS

CITY           SKY/WX    TMP DP  RH WIND       PRES   REMARKS
CHAMPAIGN      MOSUNNY   21  15  78 CALM      30.54S
DANVILLE*      SUNNY     23  14  68 CALM      30.53R
RANTOUL*       SUNNY     26  16  67 CALM      30.54S
MATTOON        FLURRIES  26  15  63 N6        30.53F WCI  19
PARIS*         MOSUNNY   21  16  79 CALM      30.56F
$$

ILZ079-100>102-021800-
SOUTHWEST ILLINOIS

CITY           SKY/WX    TMP DP  RH WIND       PRES   REMARKS
BELLEVILLE     MOSUNNY   31  20  63 NE6       30.54F WCI  26
CAHOKIA*       MOSUNNY   34  19  54 E8        30.55F WCI  27
SPARTA*        FAIR      29  19  65 NE10      30.55F WCI  20
$$

ILZ064>066-069>071-074>076-080>082-084>086-088>090-092>094-021800-
SOUTH-CENTRAL ILLINOIS

CITY           SKY/WX    TMP DP  RH WIND       PRES   REMARKS
CARBONDALE     MOSUNNY   34  20  56 NE10      30.54F WCI  26
CAIRO*         SUNNY     36  21  55 NE14      30.52F WCI  27
EFFINGHAM*     MOSUNNY   30  15  53 NE8       30.56F WCI  22
MARION         PTSUNNY   34  19  55 NE12      30.53F WCI  25
MT. VERNON     SUNNY     30  19  64 E10       30.54F WCI  21
CENTRALIA*     SUNNY     30  24  76 NE9       30.54F WCI  22
SALEM*         SUNNY     32  19  59 NE9       30.54F WCI  24
METROPOLIS*    SUNNY     35  18  50 NE9       30.52R WCI  28
$$

ILZ067-068-072-073-078-083-087-091-021800-
SOUTHEAST ILLINOIS

CITY           SKY/WX    TMP DP  RH WIND       PRES   REMARKS
LAWRENCEVILLE  MOSUNNY   28  17  63 NE7       30.57F WCI  21
FLORA*         MOSUNNY   29  19  66 NE7       30.56F WCI  22
FAIRFIELD*     SUNNY     30  18  60 NE8       30.55F WCI  22
HARRISBURG*    SUNNY     32  22  65 E8        30.56F WCI  25
ROBINSON*      MOSUNNY   27  17  67 CALM      30.58F
CARMI*         SUNNY     33  23  66 NE13      30.55F WCI  24
$$

ABBREVIATIONS USED IN REMARKS
   TC - TEMPERATURE IN CELSIUS
  WCI - WIND CHILL INDEX
   HX - HEAT INDEX
  VSB - VISIBILITY
$$




USA.gov is the U.S. government's official web portal to all federal, state and local government web resources and services.